• In Portugal
  • List of Countries
  • For 7 days
  • Water Temperature
  • Satellite Maps
  • Weather Map
  • Weather Widgets
  • user-avatar
    Login

    Hourly Weather Czarze

    Today, 20 October, Saturday

    Time Temperature Precipitation Wind Pressure Humidity
    00:00 +9°C° 0 mm 1 mps 754 mmHg 71%
    01:00 +9°C° 0 mm 1 mps 754 mmHg 72%
    02:00 +9°C° 0 mm 1 mps 754 mmHg 74%
    03:00 +9°C° 0 mm 1 mps 754 mmHg 75%
    04:00 +9°C° 0 mm 1 mps 754 mmHg 77%
    05:00 +8°C° 0 mm 1 mps 754 mmHg 79%
    06:00 +7°C° 0 mm 2 mps 754 mmHg 82%
    07:00 +7°C° 0 mm 2 mps 754 mmHg 85%
    08:00 +8°C° 0 mm 2 mps 755 mmHg 79%
    09:00 +10°C° 0 mm 2 mps 755 mmHg 73%
    10:00 +11°C° 0 mm 3 mps 755 mmHg 67%
    11:00 +11°C° 0.1 mm 3 mps 755 mmHg 65%
    12:00 +11°C° 0.1 mm 3 mps 755 mmHg 64%
    13:00 +12°C° 0.1 mm 3 mps 755 mmHg 62%
    14:00 +11°C° 0.1 mm 3 mps 755 mmHg 64%
    15:00 +11°C° 0.1 mm 3 mps 755 mmHg 65%
    16:00 +10°C° 0.1 mm 3 mps 755 mmHg 66%
    17:00 +9°C° 0 mm 3 mps 755 mmHg 72%
    18:00 +9°C° 0 mm 2 mps 755 mmHg 77%
    19:00 +8°C° 0 mm 2 mps 755 mmHg 82%
    20:00 +8°C° 0 mm 2 mps 755 mmHg 84%
    21:00 +8°C° 0 mm 2 mps 755 mmHg 86%
    22:00 +8°C° 0 mm 2 mps 755 mmHg 88%
    23:00 +7°C° 0 mm 2 mps 755 mmHg 90%

    Tomorrow, 21 October, Sunday

    Time Temperature Precipitation Wind Pressure Humidity
    00:00 +7°C° 0 mm 2 mps 755 mmHg 92%
    01:00 +6°C° 0 mm 2 mps 755 mmHg 95%
    02:00 +7°C° 0 mm 1 mps 755 mmHg 95%
    03:00 +7°C° 0 mm 1 mps 755 mmHg 95%
    04:00 +7°C° 0 mm 1 mps 755 mmHg 95%
    05:00 +7°C° 0 mm 1 mps 756 mmHg 95%
    06:00 +7°C° 0 mm 1 mps 756 mmHg 95%
    07:00 +7°C° 0 mm 1 mps 756 mmHg 95%
    08:00 +9°C° 0 mm 1 mps 756 mmHg 89%
    09:00 +10°C° 0 mm 1 mps 757 mmHg 82%
    10:00 +12°C° 0 mm 1 mps 757 mmHg 75%
    11:00 +13°C° 0 mm 1 mps 757 mmHg 70%
    12:00 +14°C° 0 mm 1 mps 757 mmHg 65%
    13:00 +15°C° 0 mm 1 mps 757 mmHg 59%
    14:00 +14°C° 0 mm 1 mps 757 mmHg 61%
    15:00 +14°C° 0 mm 1 mps 757 mmHg 63%
    16:00 +13°C° 0 mm 1 mps 756 mmHg 65%
    17:00 +12°C° 0 mm 1 mps 756 mmHg 69%
    18:00 +11°C° 0 mm 1 mps 756 mmHg 73%
    19:00 +10°C° 0 mm 1 mps 756 mmHg 77%
    20:00 +10°C° 0 mm 1 mps 756 mmHg 80%
    21:00 +9°C° 0 mm 1 mps 756 mmHg 82%
    22:00 +8°C° 0 mm 2 mps 756 mmHg 84%
    23:00 +8°C° 0 mm 2 mps 756 mmHg 86%

    Day after tomorrow, 22 October, Monday

    Time Temperature Precipitation Wind Pressure Humidity
    00:00 +7°C° 0 mm 2 mps 756 mmHg 87%
    01:00 +7°C° 0 mm 2 mps 756 mmHg 89%
    02:00 +7°C° 0 mm 2 mps 755 mmHg 89%
    03:00 +6°C° 0 mm 2 mps 755 mmHg 89%
    04:00 +5°C° 0 mm 3 mps 754 mmHg 90%
    05:00 +5°C° 0 mm 3 mps 754 mmHg 90%
    06:00 +5°C° 0 mm 3 mps 754 mmHg 90%
    07:00 +5°C° 0 mm 3 mps 754 mmHg 90%
    08:00 +7°C° 0 mm 3 mps 754 mmHg 83%
    09:00 +8°C° 0 mm 4 mps 754 mmHg 77%
    10:00 +10°C° 0 mm 4 mps 754 mmHg 70%
    11:00 +10°C° 0.2 mm 4 mps 754 mmHg 72%
    12:00 +10°C° 0.2 mm 4 mps 753 mmHg 74%
    13:00 +10°C° 0.2 mm 4 mps 753 mmHg 76%
    14:00 +10°C° 0.5 mm 4 mps 753 mmHg 79%
    15:00 +8°C° 0.5 mm 4 mps 753 mmHg 81%
    16:00 +8°C° 0.5 mm 4 mps 753 mmHg 83%
    17:00 +9°C° 0.3 mm 3 mps 753 mmHg 81%
    18:00 +8°C° 0.3 mm 3 mps 753 mmHg 79%
    19:00 +8°C° 0.3 mm 3 mps 754 mmHg 77%
    20:00 +8°C° 0 mm 3 mps 754 mmHg 76%
    21:00 +7°C° 0 mm 3 mps 754 mmHg 76%
    22:00 +7°C° 0 mm 3 mps 754 mmHg 75%
    23:00 +5°C° 0 mm 3 mps 754 mmHg 77%

    23 October, Tuesday

    Time Temperature Precipitation Wind Pressure Humidity
    00:00 +5°C° 0 mm 3 mps 754 mmHg 79%
    01:00 +5°C° 0 mm 3 mps 754 mmHg 81%
    02:00 +4°C° 0 mm 3 mps 754 mmHg 82%
    03:00 +4°C° 0 mm 3 mps 754 mmHg 83%
    04:00 +4°C° 0 mm 3 mps 753 mmHg 84%
    05:00 +4°C° 0 mm 3 mps 753 mmHg 84%
    06:00 +4°C° 0 mm 3 mps 753 mmHg 85%
    07:00 +4°C° 0 mm 3 mps 753 mmHg 85%
    08:00 +5°C° 0 mm 4 mps 752 mmHg 81%
    09:00 +6°C° 0 mm 5 mps 751 mmHg 77%
    10:00 +7°C° 0 mm 6 mps 751 mmHg 73%
    11:00 +6°C° 0.5 mm 7 mps 749 mmHg 75%
    12:00 +6°C° 0.5 mm 7 mps 748 mmHg 77%
    13:00 +6°C° 0.5 mm 8 mps 747 mmHg 78%
    14:00 +6°C° 1.4 mm 9 mps 745 mmHg 80%
    15:00 +6°C° 1.4 mm 9 mps 744 mmHg 82%
    16:00 +6°C° 1.4 mm 9 mps 742 mmHg 84%
    17:00 +6°C° 1.7 mm 10 mps 741 mmHg 84%
    18:00 +7°C° 1.7 mm 10 mps 739 mmHg 85%
    19:00 +8°C° 1.7 mm 10 mps 738 mmHg 85%
    20:00 +8°C° 2 mm 10 mps 737 mmHg 85%
    21:00 +9°C° 2 mm 10 mps 736 mmHg 84%
    22:00 +11°C° 2 mm 10 mps 735 mmHg 83%
    23:00 +9°C° 0.8 mm 10 mps 734 mmHg 80%

    24 October, Wednesday

    Time Temperature Precipitation Wind Pressure Humidity
    00:00 +9°C° 0.8 mm 10 mps 734 mmHg 76%
    01:00 +9°C° 0.8 mm 10 mps 734 mmHg 72%
    02:00 +8°C° 0.1 mm 9 mps 735 mmHg 73%
    03:00 +9°C° 0.1 mm 8 mps 736 mmHg 75%
    04:00 +8°C° 0.1 mm 7 mps 737 mmHg 76%
    05:00 +8°C° 0.1 mm 7 mps 737 mmHg 75%
    06:00 +6°C° 0.1 mm 7 mps 738 mmHg 73%
    07:00 +5°C° 0.1 mm 7 mps 739 mmHg 72%
    08:00 +6°C° 0 mm 7 mps 739 mmHg 65%
    09:00 +6°C° 0 mm 7 mps 740 mmHg 57%
    10:00 +7°C° 0 mm 8 mps 741 mmHg 50%
    11:00 +7°C° 0 mm 8 mps 741 mmHg 47%
    12:00 +7°C° 0 mm 8 mps 742 mmHg 44%
    13:00 +7°C° 0 mm 8 mps 742 mmHg 41%
    14:00 +8°C° 0 mm 7 mps 742 mmHg 43%
    15:00 +7°C° 0 mm 6 mps 743 mmHg 45%
    16:00 +6°C° 0 mm 5 mps 743 mmHg 47%
    17:00 +6°C° 0 mm 4 mps 743 mmHg 52%
    18:00 +6°C° 0 mm 4 mps 743 mmHg 56%
    19:00 +5°C° 0 mm 4 mps 743 mmHg 61%
    20:00 +5°C° 0 mm 4 mps 744 mmHg 64%
    21:00 +5°C° 0 mm 4 mps 744 mmHg 66%
    22:00 +5°C° 0 mm 3 mps 744 mmHg 69%
    23:00 +4°C° 0 mm 3 mps 744 mmHg 71%

    25 October, Thursday

    Time Temperature Precipitation Wind Pressure Humidity
    00:00 +4°C° 0 mm 3 mps 744 mmHg 74%
    01:00 +4°C° 0 mm 3 mps 744 mmHg 76%
    02:00 +4°C° 0 mm 3 mps 743 mmHg 78%
    03:00 +4°C° 0 mm 4 mps 743 mmHg 80%
    04:00 +5°C° 0 mm 4 mps 743 mmHg 83%
    05:00 +6°C° 0.2 mm 5 mps 742 mmHg 84%
    06:00 +8°C° 0.2 mm 6 mps 741 mmHg 85%
    07:00 +9°C° 0.2 mm 7 mps 740 mmHg 87%
    08:00 +9°C° 0.1 mm 8 mps 740 mmHg 82%
    09:00 +8°C° 0.1 mm 9 mps 740 mmHg 78%
    10:00 +8°C° 0.1 mm 9 mps 739 mmHg 73%
    11:00 +8°C° 0.1 mm 9 mps 739 mmHg 74%
    12:00 +10°C° 0.1 mm 9 mps 739 mmHg 74%
    13:00 +10°C° 0.1 mm 9 mps 739 mmHg 74%
    14:00 +10°C° 0.1 mm 9 mps 739 mmHg 73%
    15:00 +9°C° 0.1 mm 10 mps 738 mmHg 72%
    16:00 +9°C° 0.1 mm 10 mps 738 mmHg 71%
    17:00 +10°C° 0.1 mm 9 mps 738 mmHg 70%
    18:00 +10°C° 0.1 mm 9 mps 738 mmHg 70%
    19:00 +10°C° 0.1 mm 9 mps 737 mmHg 70%
    20:00 +10°C° 0.6 mm 9 mps 737 mmHg 71%
    21:00 +8°C° 0.6 mm 10 mps 737 mmHg 71%
    22:00 +8°C° 0.6 mm 10 mps 736 mmHg 72%
    23:00 +8°C° 0.2 mm 10 mps 737 mmHg 70%
    Show more